SM7SJR-13 Weather Reports


Display with metric or nautical units.
time (UTC)temp
F
wind
direction
speed
MPH
gust
MPH
rain 1hr
in
rain 24hr
in
rain mn
in
humidity
%
barometer
mb
20260831173004 65 184 2.0 6.0 0.00 0.02 0.01 88 1006.2
20260831171504 66 181 2.0 9.0 0.00 0.02 0.01 86 1006.2
20260831163004 67 165 3.0 7.0 0.00 0.02 0.01 81 1006.1
20260831160004 69 190 1.0 7.0 0.00 0.03 0.01 77 1006.4
20260831154504 70 191 4.0 13.0 0.00 0.03 0.01 74 1006.4
20260831153004 70 189 6.0 12.0 0.00 0.07 0.01 75 1006.6
20260831151504 68 222 2.0 7.0 0.00 0.08 0.01 81 1006.5
20260831150003 67 197 3.0 12.0 0.00 0.08 0.01 80 1006.5
20260831143004 67 212 5.0 9.0 0.00 0.12 0.01 79 1006.6
20260831141504 67 193 2.0 9.0 0.00 0.22 0.01 77 1006.7
20260831140004 68 202 1.0 8.0 0.00 0.23 0.01 76 1006.7
20260831133003 68 198 6.0 12.0 0.00 0.23 0.01 75 1006.7
20260831131503 68 201 6.0 14.0 0.00 0.23 0.01 74 1006.7
20260831124503 69 188 5.0 9.0 0.00 0.23 0.01 73 1006.6
20260831123003 69 186 3.0 9.0 0.00 0.23 0.01 72 1006.6
20260831121504 69 211 1.0 12.0 0.00 0.23 0.01 73 1006.6
20260831114503 70 200 5.0 12.0 0.00 0.23 0.01 70 1006.7
20260831113003 71 193 3.0 12.0 0.00 0.23 0.01 70 1006.9
20260831111503 70 222 7.0 16.0 0.00 0.23 0.01 70 1006.9
20260831110004 71 208 7.0 17.0 0.00 0.23 0.01 70 1006.8
20260831103004 67 208 9.0 13.0 0.00 0.23 0.01 77 1007.4
20260831101504 66 196 4.0 13.0 0.00 0.23 0.01 82 1007.5
20260831100004 66 195 4.0 13.0 0.00 0.23 0.01 82 1007.5
20260831094503 65 210 5.0 9.0 0.00 0.23 0.01 84 1007.3
20260831091504 65 217 5.0 12.0 0.00 0.23 0.01 86 1007.2
20260831090004 65 226 6.0 9.0 0.00 0.23 0.01 86 1007.0
20260831083004 65 224 5.0 12.0 0.00 0.23 0.01 86 1006.8
20260831081504 65 200 6.0 10.0 0.00 0.23 0.01 88 1007.1
20260831080004 64 224 5.0 12.0 0.00 0.23 0.01 90 1007.1
20260831074504 64 203 4.0 9.0 0.00 0.23 0.01 91 1006.9
20260831073004 63 228 6.0 10.0 0.00 0.23 0.01 93 1006.9
20260831071504 62 205 3.0 8.0 0.00 0.23 0.01 95 1006.9
20260831070004 61 214 3.0 10.0 0.00 0.23 0.01 96 1007.1
20260831064503 60 192 6.0 9.0 0.00 0.23 0.01 97 1007.1
20260831063004 59 208 3.0 7.0 0.00 0.23 0.01 97 1007.1
20260831061504 59 192 3.0 7.0 0.00 0.23 0.01 97 1006.9
20260831054504 59 195 4.0 8.0 0.00 0.23 0.01 97 1006.5
20260831051504 57 202 3.0 9.0 0.00 0.23 0.01 97 1006.3
20260831044504 56 199 5.0 7.0 0.00 0.23 0.01 97 1006.3
20260831034503 56 209 3.0 7.0 0.01 0.23 0.01 97 1006.0
20260831031504 56 212 5.0 7.0 0.01 0.23 0.01 97 1005.9
20260831024504 56 224 4.0 8.0 0.00 0.22 0.00 97 1005.6
20260831023004 56 226 4.0 9.0 0.00 0.22 0.00 96 1005.5
20260831021503 57 226 5.0 8.0 0.00 0.22 0.00 96 1005.5
20260831020004 57 219 4.0 8.0 0.00 0.22 0.00 97 1005.3
20260831014504 57 233 6.0 7.0 0.00 0.22 0.00 96 1005.0
20260831013003 57 241 6.0 8.0 0.00 0.22 0.00 96 1005.1
20260831011504 58 235 4.0 8.0 0.00 0.22 0.00 96 1005.1
20260831010003 58 232 6.0 8.0 0.00 0.22 0.00 96 1005.0
20260831004503 58 236 5.0 8.0 0.00 0.22 0.00 96 1004.8
20260831003004 59 238 6.0 10.0 0.00 0.22 0.00 96 1004.7
20260831001503 59 227 4.0 8.0 0.00 0.22 0.00 96 1004.6
20260831000004 59 222 2.0 12.0 0.00 0.22 0.00 95 1004.5
20260830234504 60 236 8.0 12.0 0.00 0.22 0.00 95 1004.5
20260830233004 60 248 7.0 12.0 0.00 0.22 0.00 95 1004.4
20260830231503 61 246 6.0 14.0 0.00 0.22 0.00 96 1004.1
20260830230004 61 232 9.0 17.0 0.00 0.22 0.00 96 1004.0
20260830224503 62 242 7.0 13.0 0.00 0.22 0.00 96 1003.6
20260830223004 62 241 6.0 14.0 0.00 0.22 0.00 96 1003.0
20260830221504 63 214 7.0 12.0 0.00 0.22 0.00 97 1003.0
20260830220004 63 232 7.0 12.0 0.00 0.22 0.00 97 1003.0
20260830214504 63 232 6.0 12.0 0.00 0.22 0.22 97 1002.4
20260830213004 63 219 5.0 9.0 0.00 0.22 0.22 97 1002.4
20260830210003 63 203 5.0 10.0 0.00 0.22 0.22 97 1002.3
20260830204504 63 199 6.0 9.0 0.00 0.22 0.22 97 1002.3
20260830201503 63 206 5.0 9.0 0.00 0.22 0.22 97 1002.1
20260830194503 64 194 5.0 12.0 0.00 0.22 0.22 96 1002.0
20260830191504 64 187 3.0 12.0 0.01 0.22 0.22 96 1002.0
20260830190003 64 185 2.0 10.0 0.01 0.22 0.22 96 1002.1
20260830183004 64 199 5.0 15.0 0.01 0.22 0.22 96 1002.0
20260830181504 64 199 6.0 10.0 0.00 0.21 0.21 96 1002.0
20260830180004 64 181 2.0 10.0 0.00 0.21 0.21 96 1002.1